Location: Newark
(29.9790°N, 31.1340°E)
Time: 21:25:48
(UTC+00:00)

SR - All Passes

Search period start: 25 January 2020 00:00
Search period end: 04 February 2020 00:00
Orbit: 574 x 882 km, 66.7° (Epoch: 25 January)

Date Brightness Start Highest point End Pass type
(mag) Time Alt. Az. Time Alt. Az. Time Alt. Az.
25 Jan - 04:33:29 10° N 04:37:23 20° NE 04:41:03 10° E daylight
25 Jan - 06:14:44 10° NW 06:19:39 40° WSW 06:24:09 10° S daylight
25 Jan - 18:55:19 10° S 19:00:41 45° ESE 19:06:18 10° NE night (unlit)
25 Jan - 20:38:29 10° WSW 20:42:59 23° NW 20:47:36 10° N night (unlit)
26 Jan - 05:24:47 10° NNW 05:30:09 86° ENE 05:34:59 10° SSE daylight
26 Jan - 18:07:08 10° SSE 18:11:19 21° ESE 18:15:38 10° ENE night (unlit)
26 Jan - 19:47:34 10° SW 19:53:02 45° WNW 19:58:42 10° N night (unlit)
27 Jan - 04:35:24 10° N 04:40:22 38° ENE 04:44:56 10° SE daylight
27 Jan - 06:18:30 10° WNW 06:22:01 19° WSW 06:25:20 10° SSW daylight
27 Jan - 18:57:35 10° SSW 19:03:17 89° ESE 19:09:15 10° NNE night (unlit)
27 Jan - 20:43:46 10° WNW 20:46:09 12° NW 20:48:34 10° NNW night (unlit)
28 Jan - 03:46:41 10° N 03:50:22 19° NE 03:53:51 10° E visible
28 Jan - 05:27:44 10° NW 05:32:42 43° WSW 05:37:13 10° S daylight
28 Jan - 18:08:25 10° S 18:13:45 42° ESE 18:19:18 10° NE visible
28 Jan - 19:51:21 10° WSW 19:56:00 24° NW 20:00:44 10° N night (unlit)
29 Jan - 04:37:50 10° NNW 04:43:10 80° ENE 04:47:58 10° SSE daylight
29 Jan - 17:20:22 10° SSE 17:24:23 20° ESE 17:28:32 10° ENE visible
29 Jan - 19:00:32 10° SW 19:06:04 48° WNW 19:11:47 10° NNE visible
30 Jan - 03:48:30 10° N 03:53:23 35° ENE 03:57:51 10° SE visible
30 Jan - 05:31:23 10° WNW 05:35:04 20° WSW 05:38:32 10° SSW daylight
30 Jan - 18:10:37 10° SSW 18:16:20 84° ESE 18:22:18 10° NNE visible
30 Jan - 19:56:24 10° WNW 19:59:08 13° NW 20:01:54 10° NNW night (unlit)
31 Jan - 02:59:53 10° NNE 03:03:21 17° NE 03:06:37 10° E visible
31 Jan - 04:40:44 10° NW 04:45:44 47° WSW 04:50:18 10° S daylight
31 Jan - 17:21:32 10° S 17:26:49 40° ESE 17:32:17 10° NE visible
31 Jan - 19:04:14 10° WSW 19:09:00 26° WNW 19:13:53 10° N visible
01 Feb - 03:50:54 10° NNW 03:56:11 74° ENE 04:00:57 10° SSE visible
01 Feb - 16:33:36 10° SSE 16:37:28 19° ESE 16:41:24 10° ENE visible
01 Feb - 18:13:30 10° SW 18:19:05 51° WNW 18:24:52 10° NNE visible
02 Feb - 03:01:37 10° N 03:06:22 33° ENE 03:10:44 10° ESE visible
02 Feb - 04:44:18 10° WNW 04:48:07 21° WSW 04:51:42 10° SSW daylight
02 Feb - 17:23:39 10° SSW 17:29:23 79° ESE 17:35:20 10° NNE visible
02 Feb - 19:09:06 10° W 19:12:07 14° NW 19:15:12 10° NNW visible
03 Feb - 02:13:07 10° NNE 02:16:19 16° NE 02:19:22 10° E visible
03 Feb - 03:53:45 10° NW 03:58:46 50° WSW 04:03:20 10° S visible
03 Feb - 16:34:39 10° S 16:39:52 37° ESE 16:45:16 10° NE visible
03 Feb - 18:17:07 10° WSW 18:22:01 27° WNW 18:27:00 10° N visible
